FENGYUN 1C DEB

Satellite information

Favourite Embed

Satellite Type and Status

DEBRISIN ORBIT

Key statistics

Satellite FENGYUN 1C DEB at a glance.

Uptime

9661

Days in orbit

Revolutions

≈ 14.2

Per day

Orbit

SSO

Sun Synchronous Orbit

Inclination

98.7

Latest

Satellite identification and parameters

Extended collection of information and parameters for FENGYUN 1C DEB.

Object identification

Identified? True

Debris? True

Object name: FENGYUN 1C DEB

International designator: 1999-025BTR

Object number (NORAD): 31429

Object ID (CCSDS): 31429

Country: PEOPLES REPUBLIC OF CHINA (PRC)

Current information (Y/N): Y

RCS size: SMALL

Orbital parameters

Period: 101.249 minutes

Inclination: 98.6962 deg

SMA: 7195.933 km

Apoapsis: 828.342 km

Periapsis: 807.254 km

RAAN: 341.6501 deg

Eccentricy: 0.00146524

Argument of periapsis: 212.0106 deg

Mean anomaly: 271.8015 deg

Mean motion: 14.2223737 rev/day

Mean motion (dot): 0.00003395 rev/day2

B* drag term: 0.0015469316 1/REarth

Two-line elements (TLE)

Creation date: Oct. 19, 2025, 2:20 a.m.

Reference frame: TEME

Reference center: EARTH

Epoch: Oct. 18, 2025, 10:51 p.m. UTC

TLE line 0: 0 FENGYUN 1C DEB

TLE line 1: 1 31429U 99025BTR 25291.95240832 .00003395 00000-0 15469-2 0 9993

TLE line 2: 2 31429 98.6962 341.6501 0014652 212.0106 271.8015 14.22237370951742

Live tracking on map

Real-time ground track for satellite FENGYUN 1C DEB.

In-orbit conjunctions

A list of the most updated potential collisions computed for object FENGYUN 1C DEB.

Target Orbit TCA Probability of collision Miss distance Type
SL-16 R/B LEO 2025-07-20 12:04:35 0.0001369832 146.0 (m) ROCKET BODY
SPOT 3 SSO 2024-11-24 03:21:02 0.0001056115 425.0 (m) PAYLOAD
SL-16 R/B LEO 2024-06-03 18:57:54 0.000496953 145.0 (m) ROCKET BODY

Associated space launch

Chinese polar orbiting meteorological satellite

FENGYUN 1C DEB was lifted into orbit during the mission ‘Long March 4B | Feng Yun 1C’, on board a Long March 4B space rocket.

The launch took place on May 10, 1999, 1:33 a.m. from Launch Complex 7.

For more information about the launch, click the button.

Launch to space Long March 4B | Feng Yun 1C
Long March 4B | Feng Yun 1C

Agency: N/A

Status: Launch Successful

Launch date: May 10, 1999, 1:33 a.m. UTC

Rocket: Long March 4B

Launch pad: Launch Complex 7

Location: Taiyuan Satellite Launch Center, People's Republic of China

...

Latest news about this satellite

There are no fresh news available about this satellite. Check back as we update our databases every day.


Newsletter sign-up

Weekly statistics, charts and insights to help you stay on top of the space industry.